Location: Newark
(27.9675°N, 86.8869°E)
Time: 10:50:50
(UTC+00:00)

deb Explorer IX - Pass Details

Date: 30 October 2019
Orbit: 546 x 1105 km, 38.8° (Epoch: 17 November)

Event Time Altitude Azimuth Distance (km) Brightness Sun altitude
Rises 06:14:25 0° 301° (WNW) 2,832 ? 48.1°
Reaches altitude 10° 06:16:58 10° 315° (NW) 1,997 ? 48.0°
Maximum altitude 06:20:45 24° 10° (N) 1,392 ? 47.9°
Drops below altitude 10° 06:24:57 10° 64° (ENE) 2,259 ? 47.8°
Sets 06:28:03 0° 78° (ENE) 3,299 ? 47.6°
